Marysville, MI

6:47 PM EST on February 27, 2017 (GMT -0500)
Saint Clair County International

Weather History for KPHN - January, 2012

Change the Weather History Date:

Thursday, January 5, 2012

  Actual Average (KMTC) Record (KMTC)
Temperature  
Mean Temperature 32 °F -  
Max Temperature 39 °F 31 °F 59 °F (1997)
Min Temperature 26 °F 17 °F -4 °F (1999)
Degree Days  
Heating Degree Days 32    
Moisture  
Dew Point 24 °F    
Average Humidity 74    
Maximum Humidity 87    
Minimum Humidity 56    
Precipitation  
Precipitation 0.00 in - - ()
Sea Level Pressure  
Sea Level Pressure 29.90 in    
Wind  
Wind Speed 7 mph (SW)    
Max Wind Speed 13 mph    
Max Gust Speed 21 mph    
Visibility 10 miles    
Events Rain    
Averages and records for this station are not official NWS values.
T = Trace of Precipitation, MM = Missing Value Source: NWS Daily Summary

Daily Weather History Graph

Daily Weather History Graph

Search for Another Location

Airport or City:

Trip Planner

Search our weather history database for the weather conditions in past years. The results will help you decide how hot, cold, wet, or windy it might be!

Date:

Astronomy

Jan. 05, 2012 Rise Set
Actual Time 8:01 AM EST 5:09 PM EST
Civil Twilight 7:29 AM EST 5:41 PM EST
Nautical Twilight 6:53 AM EST 6:17 PM EST
Astronomical Twilight 6:19 AM EST 6:51 PM EST
Moon 2:12 PM EST (1/5) 4:45 AM EST (1/5)
Length of Visible Light 10h 12m
Length of Day
9h 08m
Waxing Gibbous, 87% of the Moon is Illuminated
Jan 5
Waxing Gibbous
Jan 9
Full
Jan 16
Last Quarter
Jan 23
New
Jan 30
First Quarter

Hourly Weather History & Observations

Time (EST) Temp. Windchill Dew Point Humidity Pressure Visibility Wind Dir Wind Speed Gust Speed Precip Events Conditions
12:05 AM 30.2 °F 22.6 °F 23.0 °F 75% 29.91 in 10.0 mi NW 8.1 mph - N/A   Overcast
12:25 AM 30.2 °F 22.6 °F 23.0 °F 75% 29.91 in 10.0 mi NW 8.1 mph - N/A   Overcast
12:45 AM 30.2 °F 21.3 °F 23.0 °F 75% 29.91 in 10.0 mi NW 10.4 mph - N/A   Overcast
1:05 AM 30.2 °F 21.3 °F 21.2 °F 69% 29.91 in 10.0 mi NW 10.4 mph 20.7 mph N/A   Overcast
1:25 AM 30.2 °F 20.8 °F 21.2 °F 69% 29.91 in 10.0 mi NW 11.5 mph - N/A   Overcast
1:45 AM 30.2 °F 22.6 °F 21.2 °F 69% 29.91 in 10.0 mi NW 8.1 mph - N/A   Overcast
2:05 AM 30.2 °F 21.9 °F 21.2 °F 69% 29.91 in 10.0 mi WNW 9.2 mph - N/A   Overcast
2:25 AM 30.2 °F 22.6 °F 21.2 °F 69% 29.92 in 10.0 mi WNW 8.1 mph - N/A   Overcast
2:45 AM 30.2 °F 22.6 °F 21.2 °F 69% 29.92 in 10.0 mi WNW 8.1 mph - N/A   Overcast
3:05 AM 30.2 °F 23.4 °F 21.2 °F 69% 29.92 in 10.0 mi WNW 6.9 mph - N/A   Overcast
3:25 AM 30.2 °F 23.4 °F 21.2 °F 69% 29.94 in 10.0 mi West 6.9 mph - N/A   Overcast
3:45 AM 30.2 °F 24.3 °F 21.2 °F 69% 29.93 in 10.0 mi West 5.8 mph - N/A   Overcast
4:05 AM 30.2 °F 25.4 °F 21.2 °F 69% 29.93 in 10.0 mi West 4.6 mph - N/A   Overcast
4:25 AM 30.2 °F 25.4 °F 21.2 °F 69% 29.93 in 10.0 mi West 4.6 mph - N/A   Overcast
4:45 AM 30.2 °F 25.4 °F 21.2 °F 69% 29.94 in 10.0 mi West 4.6 mph - N/A   Overcast
5:05 AM 30.2 °F 24.3 °F 23.0 °F 75% 29.95 in 10.0 mi West 5.8 mph - N/A   Overcast
5:25 AM 30.2 °F 26.7 °F 23.0 °F 75% 29.96 in 10.0 mi West 3.5 mph - N/A   Overcast
5:45 AM 30.2 °F 25.4 °F 23.0 °F 75% 29.97 in 10.0 mi West 4.6 mph - N/A   Overcast
6:05 AM 28.4 °F 23.3 °F 23.0 °F 80% 29.96 in 10.0 mi West 4.6 mph - N/A   Overcast
6:25 AM 28.4 °F 24.6 °F 23.0 °F 80% 29.95 in 10.0 mi SW 3.5 mph - N/A   Mostly Cloudy
6:45 AM 28.4 °F - 23.0 °F 80% 29.95 in 10.0 mi Calm Calm - N/A   Scattered Clouds
7:05 AM 28.4 °F - 23.0 °F 80% 29.96 in 10.0 mi Calm Calm - N/A   Clear
7:25 AM 26.6 °F 22.6 °F 23.0 °F 86% 29.95 in 10.0 mi SSW 3.5 mph - N/A   Clear
7:45 AM 26.6 °F 21.2 °F 23.0 °F 86% 29.94 in 10.0 mi SSW 4.6 mph - N/A   Clear
8:05 AM 26.6 °F 21.2 °F 23.0 °F 86% 29.93 in 10.0 mi SSW 4.6 mph - N/A   Clear
8:25 AM 26.6 °F 22.6 °F 23.0 °F 86% 29.93 in 10.0 mi SW 3.5 mph - N/A   Clear
8:45 AM 28.4 °F - 23.0 °F 80% 29.96 in 10.0 mi Calm Calm - N/A   Scattered Clouds
9:05 AM 28.4 °F 24.6 °F 23.0 °F 80% 29.95 in 10.0 mi SSW 3.5 mph - N/A   Overcast
9:25 AM 30.2 °F - 23.0 °F 75% 29.97 in 10.0 mi Calm Calm - N/A   Overcast
9:45 AM 30.2 °F 23.4 °F 23.0 °F 75% 29.97 in 10.0 mi SW 6.9 mph - N/A   Scattered Clouds
10:05 AM 30.2 °F 24.3 °F 23.0 °F 75% 29.96 in 10.0 mi SW 5.8 mph - N/A   Clear
10:25 AM 32.0 °F 25.6 °F 24.8 °F 75% 29.97 in 10.0 mi SW 6.9 mph - N/A   Clear
10:45 AM 32.0 °F 24.8 °F 24.8 °F 75% 29.97 in 10.0 mi SW 8.1 mph - N/A   Mostly Cloudy
11:05 AM 32.0 °F 25.6 °F 24.8 °F 75% 29.96 in 10.0 mi SW 6.9 mph - N/A   Scattered Clouds
11:25 AM 33.8 °F 26.4 °F 24.8 °F 70% 29.95 in 10.0 mi SW 9.2 mph - N/A   Clear
11:45 AM 33.8 °F 26.4 °F 24.8 °F 70% 29.94 in 10.0 mi SSW 9.2 mph - N/A   Clear
12:05 PM 35.6 °F 30.7 °F 24.8 °F 65% 29.94 in 10.0 mi WSW 5.8 mph - N/A   Clear
12:25 PM 35.6 °F 29.9 °F 24.8 °F 65% 29.93 in 10.0 mi SW 6.9 mph - N/A   Scattered Clouds
12:45 PM 37.4 °F 32.1 °F 24.8 °F 60% 29.92 in 10.0 mi WSW 6.9 mph - N/A   Scattered Clouds
1:05 PM 37.4 °F 32.1 °F 24.8 °F 60% 29.91 in 10.0 mi SW 6.9 mph - N/A   Clear
1:25 PM 37.4 °F 32.1 °F 24.8 °F 60% 29.89 in 10.0 mi SW 6.9 mph - N/A   Mostly Cloudy
1:45 PM 39.2 °F 33.0 °F 24.8 °F 56% 29.89 in 10.0 mi SW 9.2 mph - N/A   Overcast
2:05 PM 37.4 °F 30.8 °F 26.6 °F 65% 29.87 in 10.0 mi SSW 9.2 mph - N/A   Overcast
2:25 PM 37.4 °F 30.8 °F 26.6 °F 65% 29.86 in 10.0 mi SSW 9.2 mph - N/A   Mostly Cloudy
2:56 PM 37.4 °F 30.8 °F 33.8 °F 87% 29.87 in 10.0 mi SW 9.2 mph - N/A Rain Light Rain
3:13 PM 37.4 °F 30.8 °F 33.8 °F 87% 29.87 in 10.0 mi SW 9.2 mph - N/A Rain Light Rain
3:25 PM 35.6 °F 28.0 °F 26.6 °F 70% 29.84 in 10.0 mi South 10.4 mph - N/A   Mostly Cloudy
3:45 PM 35.6 °F 28.0 °F 26.6 °F 70% 29.83 in 10.0 mi South 10.4 mph - N/A   Scattered Clouds
4:05 PM 35.6 °F 28.6 °F 26.6 °F 70% 29.82 in 10.0 mi South 9.2 mph - N/A   Scattered Clouds
4:25 PM 35.6 °F 29.9 °F 26.6 °F 70% 29.83 in 10.0 mi South 6.9 mph - N/A   Mostly Cloudy
4:45 PM 35.6 °F 29.2 °F 28.4 °F 75% 29.83 in 10.0 mi South 8.1 mph - N/A   Scattered Clouds
5:05 PM 35.6 °F 29.2 °F 28.4 °F 75% 29.81 in 10.0 mi South 8.1 mph - N/A   Scattered Clouds
5:25 PM 35.6 °F 29.2 °F 28.4 °F 75% 29.82 in 10.0 mi South 8.1 mph - N/A   Scattered Clouds
5:45 PM 33.8 °F 27.0 °F 28.4 °F 81% 29.81 in 10.0 mi South 8.1 mph - N/A   Clear
6:05 PM 33.8 °F 25.8 °F 28.4 °F 81% 29.80 in 10.0 mi South 10.4 mph - N/A   Clear
6:25 PM 33.8 °F 26.4 °F 28.4 °F 81% 29.79 in 10.0 mi South 9.2 mph - N/A   Clear
6:45 PM 33.8 °F 24.8 °F 28.4 °F 81% 29.79 in 10.0 mi South 12.7 mph 17.3 mph N/A   Clear
7:05 PM 33.8 °F 25.8 °F 28.4 °F 81% 29.78 in 10.0 mi South 10.4 mph - N/A   Clear
7:25 PM 33.8 °F 25.8 °F 26.6 °F 75% 29.77 in 10.0 mi South 10.4 mph - N/A   Clear
7:45 PM 33.8 °F 26.4 °F 26.6 °F 75% 29.77 in 10.0 mi South 9.2 mph - N/A   Clear
8:05 PM 33.8 °F 27.7 °F 26.6 °F 75% 29.76 in 10.0 mi South 6.9 mph - N/A   Clear
8:25 PM 33.8 °F 27.0 °F 26.6 °F 75% 29.74 in 10.0 mi SSW 8.1 mph - N/A   Clear
8:45 PM 33.8 °F 27.0 °F 26.6 °F 75% 29.74 in 10.0 mi South 8.1 mph - N/A   Clear
9:05 PM 33.8 °F 26.4 °F 28.4 °F 81% 29.73 in 10.0 mi SSW 9.2 mph - N/A   Clear
9:25 PM 33.8 °F 25.8 °F 28.4 °F 81% 29.72 in 10.0 mi SSW 10.4 mph - N/A   Clear
9:45 PM 33.8 °F 26.4 °F 28.4 °F 81% 29.71 in 10.0 mi SSW 9.2 mph - N/A   Clear
10:05 PM 33.8 °F 26.4 °F 28.4 °F 81% 29.69 in 10.0 mi SSW 9.2 mph - N/A   Clear
10:25 PM 33.8 °F 27.0 °F 28.4 °F 81% 29.69 in 10.0 mi SSW 8.1 mph - N/A   Clear
10:45 PM 33.8 °F 27.0 °F 28.4 °F 81% 29.68 in 10.0 mi SSW 8.1 mph - N/A   Clear
11:05 PM 33.8 °F 25.8 °F 28.4 °F 81% 29.66 in 10.0 mi SSW 10.4 mph - N/A   Clear
11:25 PM 33.8 °F 26.4 °F 28.4 °F 81% 29.65 in 10.0 mi SSW 9.2 mph - N/A   Clear
11:45 PM 33.8 °F 26.4 °F 28.4 °F 81% 29.64 in 10.0 mi SSW 9.2 mph - N/A   Clear